UAL864 PANC-PAJN

Flight info

Callsign UAL864
Flight time 1h 19m
Altitude 35000
Route NOEND CUSHI
Aircraft B738/M-SDE2E3FGHIRWXY/LB1

Departure

Time 2026-04-20 23:40
Airport Ted Stevens Anchorage International Airport (PANC)

Arrival

Time 2026-04-21 00:59
Airport Juneau International Airport (PAJN)
Time Latitude Longitude Altitude Speed Heading
2026-04-20 22:58 61.17467 -149.98427 148 ft 0 kts 82°
2026-04-20 23:22 61.17467 -149.98437 145 ft 2 kts 82°
2026-04-20 23:22 61.17464 -149.98470 148 ft 2 kts 82°
2026-04-20 23:22 61.17462 -149.98500 147 ft 0 kts 82°
2026-04-20 23:26 61.17461 -149.98497 147 ft 0 kts 103°
2026-04-20 23:26 61.17454 -149.98486 141 ft 3 kts 144°
2026-04-20 23:27 61.17420 -149.98479 142 ft 7 kts 190°
2026-04-20 23:27 61.17370 -149.98556 145 ft 13 kts 230°
2026-04-20 23:27 61.17302 -149.98711 143 ft 17 kts 222°
2026-04-20 23:27 61.17201 -149.98888 144 ft 21 kts 229°
2026-04-20 23:28 61.17129 -149.99125 143 ft 18 kts 258°
2026-04-20 23:28 61.17124 -149.99354 144 ft 14 kts 270°
2026-04-20 23:28 61.17124 -149.99529 143 ft 10 kts 271°
2026-04-20 23:28 61.17124 -149.99581 143 ft 0 kts 269°
2026-04-20 23:29 61.17124 -149.99587 143 ft 2 kts 270°
2026-04-20 23:29 61.17123 -149.99617 142 ft 1 kts 269°
2026-04-20 23:30 61.17123 -149.99621 142 ft 0 kts 269°
2026-04-20 23:31 61.17123 -149.99658 142 ft 9 kts 269°
2026-04-20 23:31 61.17123 -149.99896 139 ft 23 kts 271°
2026-04-20 23:32 61.17124 -150.00252 140 ft 24 kts 270°
2026-04-20 23:32 61.17123 -150.00575 140 ft 21 kts 270°
2026-04-20 23:32 61.17123 -150.00846 140 ft 17 kts 270°
2026-04-20 23:32 61.17122 -150.01069 136 ft 14 kts 269°
2026-04-20 23:33 61.17121 -150.01266 137 ft 14 kts 270°
2026-04-20 23:33 61.17122 -150.01494 140 ft 17 kts 270°
2026-04-20 23:33 61.17122 -150.01792 140 ft 24 kts 270°
2026-04-20 23:33 61.17122 -150.02180 141 ft 30 kts 269°
2026-04-20 23:34 61.17122 -150.02642 137 ft 33 kts 270°
2026-04-20 23:34 61.17121 -150.03079 139 ft 16 kts 270°
2026-04-20 23:34 61.17097 -150.03272 140 ft 13 kts 225°
2026-04-20 23:34 61.17040 -150.03393 140 ft 11 kts 224°
2026-04-20 23:35 61.16991 -150.03484 137 ft 6 kts 201°
2026-04-20 23:35 61.16978 -150.03489 135 ft 0 kts 189°
2026-04-20 23:38 61.16946 -150.03498 136 ft 11 kts 186°
2026-04-20 23:38 61.16850 -150.03468 138 ft 15 kts 159°
2026-04-20 23:39 61.16788 -150.03334 137 ft 11 kts 103°
2026-04-20 23:39 61.16782 -150.02880 141 ft 68 kts 90°
2026-04-20 23:39 61.16784 -150.01351 143 ft 141 kts 90°
2026-04-20 23:39 61.16797 -149.99041 659 ft 160 kts 94°
2026-04-20 23:40 61.16839 -149.97019 2179 ft 129 kts 89°
2026-04-20 23:40 61.16966 -149.94901 2421 ft 171 kts 89°
2026-04-20 23:40 61.17103 -149.92309 3009 ft 183 kts 89°
2026-04-20 23:40 61.17244 -149.89691 3293 ft 181 kts 89°
2026-04-20 23:41 61.17375 -149.87091 3624 ft 182 kts 95°
2026-04-20 23:41 61.16985 -149.84690 3958 ft 179 kts 136°
2026-04-20 23:41 61.15925 -149.83436 4309 ft 182 kts 174°
2026-04-20 23:41 61.14681 -149.83943 4733 ft 190 kts 211°
2026-04-20 23:42 61.13761 -149.85952 5166 ft 198 kts 232°
2026-04-20 23:42 61.13000 -149.88313 5600 ft 198 kts 234°
2026-04-20 23:42 61.12248 -149.90691 6145 ft 197 kts 234°
2026-04-20 23:42 61.11489 -149.93098 6680 ft 197 kts 234°
2026-04-20 23:43 61.10744 -149.95445 7166 ft 199 kts 234°
2026-04-20 23:43 61.09980 -149.97830 7712 ft 199 kts 234°
2026-04-20 23:43 61.09204 -150.00223 8248 ft 200 kts 234°
2026-04-20 23:43 61.08418 -150.02619 8802 ft 202 kts 234°
2026-04-20 23:44 61.07618 -150.05029 9327 ft 203 kts 234°
2026-04-20 23:44 61.06808 -150.07436 9873 ft 207 kts 234°
2026-04-20 23:44 61.05967 -150.09907 10405 ft 214 kts 234°
2026-04-20 23:44 61.05091 -150.12459 10940 ft 222 kts 234°
2026-04-20 23:45 61.04182 -150.15091 11487 ft 229 kts 234°
2026-04-20 23:45 61.03557 -150.16895 11857 ft 235 kts 234°
2026-04-20 23:45 61.02267 -150.20604 12600 ft 246 kts 234°
2026-04-20 23:45 61.01249 -150.23516 13176 ft 254 kts 234°
2026-04-20 23:46 61.00139 -150.26451 13635 ft 269 kts 223°
2026-04-20 23:46 60.99034 -150.27863 13722 ft 287 kts 200°
2026-04-20 23:46 60.96970 -150.28279 13908 ft 314 kts 174°
2026-04-20 23:46 60.94815 -150.26836 14131 ft 339 kts 153°
2026-04-20 23:47 60.92936 -150.23782 14645 ft 353 kts 133°
2026-04-20 23:47 60.91655 -150.19428 15293 ft 362 kts 111°
2026-04-20 23:47 60.91294 -150.14344 15949 ft 370 kts 87°
2026-04-20 23:47 60.91733 -150.09106 16621 ft 375 kts 76°
2026-04-20 23:48 60.92489 -150.03941 17241 ft 380 kts 72°
2026-04-20 23:48 60.93333 -149.98764 17856 ft 385 kts 71°
2026-04-20 23:48 60.94179 -149.93503 18444 ft 389 kts 72°
2026-04-20 23:48 60.94994 -149.88178 19031 ft 392 kts 73°
2026-04-20 23:49 60.95778 -149.82789 19609 ft 395 kts 74°
2026-04-20 23:49 60.96543 -149.77317 20172 ft 399 kts 75°
2026-04-20 23:49 60.97296 -149.71786 20728 ft 403 kts 75°
2026-04-20 23:49 60.98043 -149.66205 21286 ft 406 kts 75°
2026-04-20 23:50 60.98791 -149.60567 21827 ft 410 kts 75°
2026-04-20 23:50 60.99541 -149.54870 22379 ft 413 kts 75°
2026-04-20 23:50 61.00288 -149.49184 22883 ft 417 kts 75°
2026-04-20 23:50 61.01048 -149.43373 23421 ft 420 kts 75°
2026-04-20 23:51 61.01813 -149.37511 23849 ft 424 kts 75°
2026-04-20 23:51 61.02580 -149.31614 24226 ft 428 kts 75°
2026-04-20 23:51 61.03351 -149.25664 24609 ft 432 kts 75°
2026-04-20 23:51 61.04128 -149.19647 25014 ft 435 kts 75°
2026-04-20 23:52 61.04908 -149.13574 25397 ft 439 kts 75°
2026-04-20 23:52 61.05691 -149.07456 25761 ft 443 kts 75°
2026-04-20 23:52 61.06479 -149.01281 26108 ft 447 kts 75°
2026-04-20 23:52 61.07270 -148.95047 26476 ft 450 kts 75°
2026-04-20 23:53 61.08065 -148.88765 26846 ft 453 kts 75°
2026-04-20 23:53 61.08850 -148.82532 27172 ft 456 kts 76°
2026-04-20 23:53 61.09651 -148.76146 27499 ft 460 kts 76°
2026-04-20 23:53 61.10455 -148.69716 27845 ft 463 kts 75°
2026-04-20 23:54 61.11261 -148.63246 28182 ft 466 kts 76°
2026-04-20 23:54 61.12065 -148.56709 28506 ft 470 kts 77°
2026-04-20 23:54 61.12546 -148.49998 28776 ft 472 kts 88°
2026-04-20 23:54 61.12475 -148.43194 29121 ft 473 kts 98°
2026-04-20 23:55 61.11909 -148.36554 29399 ft 473 kts 108°
2026-04-20 23:55 61.10956 -148.30025 29687 ft 475 kts 110°
2026-04-20 23:55 61.09936 -148.23506 29971 ft 478 kts 111°
2026-04-20 23:55 61.08891 -148.16967 30199 ft 481 kts 111°
2026-04-20 23:56 61.07842 -148.10379 30446 ft 483 kts 111°
2026-04-20 23:56 61.06801 -148.03779 30802 ft 483 kts 110°
2026-04-20 23:56 61.05771 -147.97179 31180 ft 482 kts 110°
2026-04-20 23:56 61.04749 -147.90598 31493 ft 482 kts 110°
2026-04-20 23:57 61.03726 -147.83994 31792 ft 483 kts 110°
2026-04-20 23:57 61.02704 -147.77406 32094 ft 483 kts 110°
2026-04-20 23:57 61.01679 -147.70811 32441 ft 482 kts 110°
2026-04-20 23:57 61.00654 -147.64246 32747 ft 482 kts 110°
2026-04-20 23:58 60.99622 -147.57662 33008 ft 483 kts 110°
2026-04-20 23:58 60.98585 -147.51076 33285 ft 483 kts 110°
2026-04-20 23:58 60.97546 -147.44500 33614 ft 482 kts 110°
2026-04-20 23:58 60.96504 -147.37941 33898 ft 483 kts 110°
2026-04-20 23:59 60.95455 -147.31358 34105 ft 483 kts 110°
2026-04-20 23:59 60.94404 -147.24789 34308 ft 484 kts 110°
2026-04-20 23:59 60.93347 -147.18205 34554 ft 483 kts 110°
2026-04-20 23:59 60.92305 -147.11738 34798 ft 483 kts 110°
2026-04-21 00:00 60.91244 -147.05175 34950 ft 484 kts 110°
2026-04-21 00:00 60.89096 -146.91975 34949 ft 488 kts 110°
2026-04-21 00:01 60.86941 -146.78811 34933 ft 483 kts 111°
2026-04-21 00:01 60.84797 -146.65812 34946 ft 480 kts 111°
2026-04-21 00:02 60.82647 -146.52876 34952 ft 479 kts 111°
2026-04-21 00:02 60.80485 -146.39966 34942 ft 478 kts 111°
2026-04-21 00:03 60.78316 -146.27101 34948 ft 478 kts 111°
2026-04-21 00:03 60.76145 -146.14311 34951 ft 479 kts 111°
2026-04-21 00:04 60.73946 -146.01448 34955 ft 480 kts 111°
2026-04-21 00:04 60.71729 -145.88570 34954 ft 482 kts 111°
2026-04-21 00:05 60.69486 -145.75630 34959 ft 484 kts 111°
2026-04-21 00:05 60.67222 -145.62657 34953 ft 486 kts 111°
2026-04-21 00:06 60.64934 -145.49641 34949 ft 487 kts 112°
2026-04-21 00:06 60.62635 -145.36645 34948 ft 488 kts 112°
2026-04-21 00:07 60.60323 -145.23674 34945 ft 488 kts 112°
2026-04-21 00:07 60.58001 -145.10731 34945 ft 487 kts 112°
2026-04-21 00:08 60.55677 -144.97864 34937 ft 486 kts 112°
2026-04-21 00:08 60.53322 -144.84913 34943 ft 485 kts 112°
2026-04-21 00:09 60.50990 -144.72176 34940 ft 484 kts 112°
2026-04-21 00:09 60.48629 -144.59369 34942 ft 483 kts 112°
2026-04-21 00:10 60.46257 -144.46582 34939 ft 483 kts 113°
2026-04-21 00:10 60.43886 -144.33890 34937 ft 483 kts 113°
2026-04-21 00:11 60.41497 -144.21183 34944 ft 483 kts 113°
2026-04-21 00:11 60.39098 -144.08502 34950 ft 482 kts 113°
2026-04-21 00:12 60.36701 -143.95919 34950 ft 482 kts 113°
2026-04-21 00:12 60.34273 -143.83253 34947 ft 483 kts 113°
2026-04-21 00:13 60.31826 -143.70568 34944 ft 484 kts 114°
2026-04-21 00:13 60.29383 -143.57984 34945 ft 485 kts 114°
2026-04-21 00:14 60.26904 -143.45300 34951 ft 485 kts 114°
2026-04-21 00:14 60.24431 -143.32725 34952 ft 485 kts 114°
2026-04-21 00:15 60.21927 -143.20070 34957 ft 486 kts 114°
2026-04-21 00:15 60.19412 -143.07441 34971 ft 486 kts 114°
2026-04-21 00:16 60.16892 -142.94868 34959 ft 486 kts 114°
2026-04-21 00:16 60.14352 -142.82273 34964 ft 486 kts 114°
2026-04-21 00:17 60.11813 -142.69759 34955 ft 487 kts 114°
2026-04-21 00:17 60.09246 -142.57188 34982 ft 487 kts 114°
2026-04-21 00:18 60.06667 -142.44633 34959 ft 487 kts 115°
2026-04-21 00:18 60.04076 -142.32097 34979 ft 486 kts 115°
2026-04-21 00:19 60.01480 -142.19616 34977 ft 486 kts 115°
2026-04-21 00:19 59.98873 -142.07158 34981 ft 486 kts 115°
2026-04-21 00:20 59.96259 -141.94741 34988 ft 485 kts 115°
2026-04-21 00:20 59.93632 -141.82342 34986 ft 485 kts 115°
2026-04-21 00:21 59.90994 -141.69959 34982 ft 485 kts 115°
2026-04-21 00:21 59.88361 -141.57674 34983 ft 485 kts 115°
2026-04-21 00:22 59.85693 -141.45303 34988 ft 485 kts 116°
2026-04-21 00:22 59.83015 -141.32955 34985 ft 485 kts 116°
2026-04-21 00:23 59.80350 -141.20742 34987 ft 485 kts 116°
2026-04-21 00:23 59.77649 -141.08436 34989 ft 486 kts 116°
2026-04-21 00:24 59.74932 -140.96129 34995 ft 486 kts 116°
2026-04-21 00:24 59.72209 -140.83866 35001 ft 486 kts 116°
2026-04-21 00:25 59.69472 -140.71611 35003 ft 487 kts 116°
2026-04-21 00:25 59.66720 -140.59365 35002 ft 487 kts 117°
2026-04-21 00:26 59.63967 -140.47177 35003 ft 487 kts 117°
2026-04-21 00:26 59.61187 -140.34947 35008 ft 487 kts 117°
2026-04-21 00:27 59.58397 -140.22739 35013 ft 487 kts 117°
2026-04-21 00:27 59.55601 -140.10574 35022 ft 487 kts 117°
2026-04-21 00:28 59.52807 -139.98490 35033 ft 487 kts 117°
2026-04-21 00:28 59.49984 -139.86348 35033 ft 487 kts 117°
2026-04-21 00:29 59.47153 -139.74240 35038 ft 487 kts 117°
2026-04-21 00:29 59.44311 -139.62154 35034 ft 487 kts 117°
2026-04-21 00:30 59.41459 -139.50090 35034 ft 487 kts 117°
2026-04-21 00:30 59.38611 -139.38106 34672 ft 479 kts 118°
2026-04-21 00:30 59.37223 -139.32284 34438 ft 473 kts 118°
2026-04-21 00:31 59.35830 -139.26463 34207 ft 468 kts 118°
2026-04-21 00:31 59.34448 -139.20704 33977 ft 466 kts 118°
2026-04-21 00:31 59.33063 -139.14949 33700 ft 465 kts 118°
2026-04-21 00:31 59.31686 -139.09246 33426 ft 463 kts 118°
2026-04-21 00:32 59.30307 -139.03549 33153 ft 462 kts 118°
2026-04-21 00:32 59.28932 -138.97882 32890 ft 461 kts 118°
2026-04-21 00:32 59.27552 -138.92209 32623 ft 460 kts 118°
2026-04-21 00:32 59.26178 -138.86576 32347 ft 460 kts 119°
2026-04-21 00:33 59.24803 -138.80952 32097 ft 458 kts 119°
2026-04-21 00:33 59.23429 -138.75341 31842 ft 457 kts 119°
2026-04-21 00:33 59.22052 -138.69737 31587 ft 457 kts 119°
2026-04-21 00:33 59.21140 -138.66035 31422 ft 456 kts 119°
2026-04-21 00:34 59.19313 -138.58637 31089 ft 455 kts 119°
2026-04-21 00:34 59.17938 -138.53080 30836 ft 454 kts 119°
2026-04-21 00:34 59.17010 -138.49339 30691 ft 453 kts 120°
2026-04-21 00:34 59.15637 -138.43818 30435 ft 453 kts 120°
2026-04-21 00:35 59.14280 -138.38374 30199 ft 452 kts 120°
2026-04-21 00:35 59.12906 -138.32874 29918 ft 451 kts 120°
2026-04-21 00:35 59.11531 -138.27387 29635 ft 451 kts 120°
2026-04-21 00:35 59.10156 -138.21909 29329 ft 448 kts 120°
2026-04-21 00:36 59.08788 -138.16474 28977 ft 445 kts 120°
2026-04-21 00:36 59.07430 -138.11089 28559 ft 442 kts 120°
2026-04-21 00:36 59.06077 -138.05736 28164 ft 440 kts 120°
2026-04-21 00:36 59.04730 -138.00423 27777 ft 437 kts 120°
2026-04-21 00:37 59.03389 -137.95147 27383 ft 434 kts 120°
2026-04-21 00:37 59.02051 -137.89897 26997 ft 432 kts 120°
2026-04-21 00:37 59.00736 -137.84747 26620 ft 430 kts 121°
2026-04-21 00:37 58.99406 -137.79553 26226 ft 428 kts 121°
2026-04-21 00:38 58.98082 -137.74395 25864 ft 427 kts 121°
2026-04-21 00:38 58.96758 -137.69247 25452 ft 427 kts 121°
2026-04-21 00:38 58.95433 -137.64108 25092 ft 426 kts 121°
2026-04-21 00:38 58.94104 -137.58967 24654 ft 428 kts 121°
2026-04-21 00:39 58.92770 -137.53822 24295 ft 428 kts 121°
2026-04-21 00:39 58.91426 -137.48648 23851 ft 429 kts 121°
2026-04-21 00:39 58.90086 -137.43488 23368 ft 427 kts 121°
2026-04-21 00:39 58.88752 -137.38366 23003 ft 423 kts 122°
2026-04-21 00:40 58.87445 -137.33361 22583 ft 419 kts 121°
2026-04-21 00:40 58.86133 -137.28349 22184 ft 416 kts 121°
2026-04-21 00:40 58.84829 -137.23379 21803 ft 413 kts 121°
2026-04-21 00:40 58.83528 -137.18438 21444 ft 412 kts 121°
2026-04-21 00:41 58.82235 -137.13534 21009 ft 408 kts 121°
2026-04-21 00:41 58.80952 -137.08676 20690 ft 406 kts 121°
2026-04-21 00:41 58.79668 -137.03827 20253 ft 404 kts 121°
2026-04-21 00:41 58.78392 -136.99020 19914 ft 403 kts 121°
2026-04-21 00:42 58.77114 -136.94219 19475 ft 401 kts 121°
2026-04-21 00:42 58.75850 -136.89473 19139 ft 397 kts 121°
2026-04-21 00:42 58.74590 -136.84756 18776 ft 395 kts 121°
2026-04-21 00:42 58.73331 -136.80053 18400 ft 394 kts 121°
2026-04-21 00:43 58.72073 -136.75367 17987 ft 394 kts 121°
2026-04-21 00:43 58.70816 -136.70690 17606 ft 392 kts 121°
2026-04-21 00:43 58.69582 -136.66106 17182 ft 390 kts 121°
2026-04-21 00:43 58.68341 -136.61504 16828 ft 387 kts 121°
2026-04-21 00:44 58.67102 -136.56922 16430 ft 385 kts 121°
2026-04-21 00:44 58.65874 -136.52387 16098 ft 382 kts 121°
2026-04-21 00:44 58.64651 -136.47887 15694 ft 378 kts 120°
2026-04-21 00:45 58.62227 -136.38981 15012 ft 373 kts 120°
2026-04-21 00:45 58.61027 -136.34586 14682 ft 372 kts 120°
2026-04-21 00:45 58.59831 -136.30214 14287 ft 367 kts 120°
2026-04-21 00:45 58.58661 -136.25942 13948 ft 357 kts 120°
2026-04-21 00:46 58.57531 -136.21823 13648 ft 350 kts 120°
2026-04-21 00:46 58.56409 -136.17742 13247 ft 343 kts 120°
2026-04-21 00:46 58.55309 -136.13748 12907 ft 334 kts 120°
2026-04-21 00:46 58.54237 -136.09867 12595 ft 325 kts 120°
2026-04-21 00:47 58.53191 -136.06087 12295 ft 317 kts 120°
2026-04-21 00:47 58.52167 -136.02392 12007 ft 312 kts 120°
2026-04-21 00:47 58.51152 -135.98737 11725 ft 310 kts 120°
2026-04-21 00:47 58.50132 -135.95071 11459 ft 317 kts 120°
2026-04-21 00:48 58.49076 -135.91284 11173 ft 326 kts 120°
2026-04-21 00:48 58.48006 -135.87451 10851 ft 326 kts 120°
2026-04-21 00:48 58.46954 -135.83679 10540 ft 325 kts 120°
2026-04-21 00:48 58.45891 -135.79878 10224 ft 323 kts 120°
2026-04-21 00:49 58.44842 -135.76131 10072 ft 315 kts 120°
2026-04-21 00:49 58.43820 -135.72483 9875 ft 309 kts 120°
2026-04-21 00:49 58.42805 -135.68872 9557 ft 308 kts 120°
2026-04-21 00:49 58.41797 -135.65291 9270 ft 305 kts 120°
2026-04-21 00:50 58.40798 -135.61746 8987 ft 302 kts 120°
2026-04-21 00:50 58.39807 -135.58231 8706 ft 300 kts 120°
2026-04-21 00:50 58.38821 -135.54743 8429 ft 297 kts 121°
2026-04-21 00:50 58.37843 -135.51290 8151 ft 295 kts 121°
2026-04-21 00:51 58.36884 -135.47911 7885 ft 293 kts 121°
2026-04-21 00:51 58.36197 -135.44283 7584 ft 294 kts 96°
2026-04-21 00:51 58.36138 -135.40413 7336 ft 291 kts 89°
2026-04-21 00:51 58.36149 -135.36559 7039 ft 291 kts 89°
2026-04-21 00:52 58.36159 -135.32696 6755 ft 291 kts 92°
2026-04-21 00:52 58.36120 -135.28900 6523 ft 281 kts 90°
2026-04-21 00:52 58.36136 -135.25191 6325 ft 274 kts 90°
2026-04-21 00:52 58.36151 -135.21659 6188 ft 261 kts 90°
2026-04-21 00:53 58.36152 -135.18285 6006 ft 249 kts 91°
2026-04-21 00:53 58.36149 -135.15071 5859 ft 237 kts 91°
2026-04-21 00:53 58.36141 -135.12018 5701 ft 226 kts 92°
2026-04-21 00:53 58.36111 -135.09082 5629 ft 219 kts 90°
2026-04-21 00:54 58.36114 -135.06116 5326 ft 229 kts 91°
2026-04-21 00:54 58.36103 -135.03091 5081 ft 232 kts 91°
2026-04-21 00:54 58.36084 -135.00018 4761 ft 231 kts 92°
2026-04-21 00:54 58.36062 -134.96927 4444 ft 229 kts 92°
2026-04-21 00:55 58.36043 -134.93954 4169 ft 226 kts 92°
2026-04-21 00:55 58.36024 -134.90988 3881 ft 222 kts 92°
2026-04-21 00:55 58.36007 -134.88091 3561 ft 217 kts 93°
2026-04-21 00:55 58.35991 -134.85219 3190 ft 215 kts 94°
2026-04-21 00:56 58.35975 -134.82375 2836 ft 213 kts 93°
2026-04-21 00:56 58.35960 -134.79575 2457 ft 210 kts 94°
2026-04-21 00:56 58.35947 -134.76851 2122 ft 200 kts 94°
2026-04-21 00:56 58.35935 -134.74281 1848 ft 190 kts 94°
2026-04-21 00:57 58.35923 -134.71794 1583 ft 185 kts 93°
2026-04-21 00:57 58.35912 -134.69391 1289 ft 181 kts 93°
2026-04-21 00:57 58.35903 -134.67040 957 ft 172 kts 94°
2026-04-21 00:57 58.35895 -134.64888 675 ft 156 kts 93°
2026-04-21 00:58 58.35890 -134.62877 430 ft 148 kts 90°
2026-04-21 00:58 58.35896 -134.60917 199 ft 148 kts 92°
2026-04-21 00:58 58.35702 -134.59076 44 ft 135 kts 109°
2026-04-21 00:58 58.35477 -134.57519 33 ft 104 kts 103°
2026-04-21 00:59 58.35389 -134.56881 32 ft 4 kts 106°
2026-04-21 00:59 58.35380 -134.56777 31 ft 13 kts 84°
2026-04-21 00:59 58.35458 -134.56686 32 ft 16 kts 338°
2026-04-21 00:59 58.35501 -134.56868 32 ft 15 kts 284°
2026-04-21 01:00 58.35527 -134.57061 30 ft 15 kts 284°
2026-04-21 01:00 58.35552 -134.57245 32 ft 14 kts 284°
2026-04-21 01:00 58.35584 -134.57460 32 ft 20 kts 286°
2026-04-21 01:00 58.35621 -134.57723 32 ft 20 kts 285°
2026-04-21 01:01 58.35657 -134.57981 32 ft 20 kts 284°
2026-04-21 01:01 58.35691 -134.58226 32 ft 13 kts 285°
2026-04-21 01:01 58.35751 -134.58303 32 ft 11 kts 355°
2026-04-21 01:01 58.35822 -134.58304 32 ft 4 kts
2026-04-21 01:02 58.35832 -134.58304 32 ft 0 kts
2026-04-21 01:02 58.35835 -134.58303 32 ft 0 kts